GW2918 Weather Reports


Display with metric or nautical units.
time (UTC)temp
F
wind
direction
speed
MPH
gust
MPH
rain 1hr
in
rain 24hr
in
rain mn
in
humidity
%
barometer
mb
20260506231528 44 340 3.0 4.0 0.00 0.39 0.39 99 1010.6
20260506230527 44 4 2.0 5.0 0.00 0.39 0.39 99 1010.5
20260506225527 44 10 2.0 4.0 0.00 0.39 0.39 99 1010.7
20260506224525 44 334 4.0 4.0 0.00 0.39 0.39 99 1010.5
20260506223523 44 324 2.0 6.0 0.00 0.39 0.39 99 1010.5
20260506222522 44 8 4.0 5.0 0.00 0.39 0.39 99 1010.4
20260506221521 44 351 3.0 6.0 0.00 0.39 0.39 99 1010.3
20260506220519 44 7 4.0 9.0 0.00 0.39 0.39 99 1010.0
20260506215518 44 345 5.0 7.0 0.00 0.39 0.39 99 1009.6
20260506214517 44 322 4.0 8.0 0.00 0.39 0.39 99 1009.6
20260506213512 45 29 4.0 5.0 0.02 0.39 0.39 99 1009.4
20260506212511 44 345 6.0 9.0 0.00 0.39 0.39 99 1009.1
20260506211508 45 10 2.0 5.0 0.05 0.39 0.39 99 1009.2
20260506210508 45 351 3.0 5.0 0.02 0.38 0.38 99 1009.1
20260506205507 45 6 5.0 9.0 0.00 0.37 0.37 99 1008.8
20260506204507 45 342 5.0 6.0 0.00 0.37 0.37 99 1008.8
20260506203502 46 19 4.0 8.0 0.02 0.37 0.37 99 1008.6
20260506202501 46 20 4.0 6.0 0.02 0.37 0.37 99 1008.3
20260506201501 46 349 4.0 6.0 0.05 0.37 0.37 99 1008.0
20260506200500 46 11 4.0 6.0 0.02 0.36 0.36 99 1007.9
20260506195500 47 13 4.0 6.0 0.05 0.35 0.35 99 1007.8
20260506194459 47 4 4.0 8.0 0.05 0.35 0.35 99 1007.8
20260506193459 47 2 3.0 9.0 0.09 0.33 0.33 99 1007.5
20260506192459 48 354 4.0 8.0 0.02 0.32 0.32 99 1007.4
20260506191458 49 5 4.0 11.0 0.00 0.31 0.31 99 1007.3
20260506190457 56 193 3.0 5.0 0.00 0.31 0.31 99 1007.3
20260506185457 56 209 3.0 9.0 0.00 0.31 0.31 99 1006.9
20260506184457 56 220 2.0 11.0 0.00 0.31 0.31 99 1007.1
20260506183455 56 221 4.0 14.0 0.00 0.31 0.31 99 1007.0
20260506182455 56 200 4.0 8.0 0.00 0.31 0.31 99 1007.1
20260506181451 56 233 13.0 14.0 0.00 0.31 0.31 99 1006.7
20260506180449 56 217 5.0 8.0 0.00 0.31 0.31 99 1007.2
20260506175449 56 196 3.0 7.0 0.00 0.31 0.31 99 1007.0
20260506174449 56 212 7.0 9.0 0.00 0.31 0.31 99 1006.9
20260506173449 56 211 10.0 12.0 0.00 0.31 0.31 99 1006.8
20260506172449 56 236 9.0 15.0 0.00 0.31 0.31 99 1007.0
20260506171449 56 220 6.0 15.0 0.00 0.31 0.31 99 1007.0
20260506170449 56 201 3.0 7.0 0.00 0.31 0.31 99 1007.0
20260506165446 55 209 11.0 12.0 0.00 0.31 0.31 99 1007.0
20260506164444 55 206 5.0 9.0 0.00 0.31 0.31 99 1006.9
20260506163443 55 225 7.0 11.0 0.02 0.31 0.31 99 1007.1
20260506162441 55 182 4.0 9.0 0.02 0.31 0.31 99 1006.9
20260506161437 55 188 2.0 7.0 0.09 0.30 0.30 99 1007.2
20260506160437 55 137 5.0 9.0 0.00 0.28 0.28 99 1007.2
20260506155433 55 232 9.0 11.0 0.00 0.28 0.28 99 1007.2
20260506153559 55 207 3.0 9.0 0.00 0.28 0.28 99 1007.1
20260506152559 55 171 6.0 8.0 0.02 0.28 0.28 99 1007.1
20260506151555 55 216 6.0 9.0 0.05 0.28 0.28 99 1007.3
20260506150554 55 219 7.0 8.0 0.07 0.27 0.27 99 1007.2
20260506145553 55 219 6.0 9.0 0.05 0.26 0.26 99 1007.1
20260506144553 54 220 9.0 12.0 0.05 0.25 0.25 99 1007.0
20260506143548 54 196 4.0 12.0 0.02 0.24 0.24 99 1007.0
20260506142544 54 180 3.0 14.0 0.09 0.24 0.24 99 1007.0
20260506141539 54 153 9.0 14.0 0.00 0.22 0.22 99 1007.1
20260506140534 55 195 5.0 9.0 0.02 0.22 0.22 99 1007.1
20260506135534 55 201 9.0 18.0 0.00 0.22 0.22 98 1007.2
20260506134533 55 196 8.0 13.0 0.00 0.22 0.22 98 1007.1
20260506133532 55 208 4.0 10.0 0.00 0.22 0.22 98 1006.9
20260506132532 54 186 5.0 9.0 0.05 0.22 0.22 99 1007.3
20260506131532 54 130 5.0 5.0 0.09 0.21 0.21 99 1006.9
20260506130531 54 184 4.0 7.0 0.12 0.20 0.20 99 1007.6
20260506125527 54 207 3.0 7.0 0.07 0.18 0.18 99 1007.8
20260506124522 54 138 5.0 10.0 0.12 0.16 0.16 98 1008.0
20260506123517 54 217 8.0 9.0 0.07 0.14 0.14 98 1008.0
20260506122517 53 165 2.0 5.0 0.05 0.13 0.13 99 1008.0
20260506121513 53 199 4.0 6.0 0.07 0.12 0.12 99 1007.8
20260506120513 53 218 4.0 5.0 0.05 0.11 0.11 99 1007.7
20260506115508 53 153 2.0 4.0 0.02 0.10 0.10 99 1007.7
20260506114503 53 142 2.0 3.0 0.02 0.10 0.10 99 1007.7
20260506113459 53 173 2.0 4.0 0.05 0.09 0.09 99 1007.9
20260506112459 53 186 2.0 4.0 0.02 0.09 0.09 99 1007.9
20260506111454 53 210 2.0 4.0 0.05 0.08 0.08 98 1007.8
20260506110454 53 189 2.0 4.0 0.05 0.07 0.07 98 1008.1
20260506105453 53 201 2.0 4.0 0.05 0.07 0.07 97 1007.8
20260506104448 53 256 1.0 2.0 0.05 0.06 0.06 97 1008.0
20260506103443 53 106 2.0 3.0 0.00 0.05 0.05 97 1007.8
20260506102438 53 69 2.0 3.0 0.02 0.05 0.05 96 1007.9
20260506101437 53 356 3.0 3.0 0.00 0.05 0.05 95 1007.8
20260506100433 53 164 3.0 5.0 0.05 0.04 0.04 95 1007.7
20260506095429 54 143 2.0 4.0 0.02 0.04 0.04 92 1007.6
20260506094429 54 110 1.0 5.0 0.02 0.03 0.03 90 1007.5
20260506093424 54 139 3.0 4.0 0.02 0.03 0.03 90 1007.5
20260506092420 55 195 2.0 6.0 0.02 0.02 0.02 87 1007.5
20260506091420 55 204 3.0 6.0 0.02 0.02 0.02 87 1007.9
20260506090415 54 131 1.0 3.0 0.00 0.02 0.02 89 1007.6
20260506085414 55 185 0.0 2.0 0.02 0.02 0.02 89 1007.9
20260506084413 56 185 2.0 4.0 0.05 0.01 0.01 82 1007.8
20260506083413 57 173 4.0 5.0 0.00 0.00 0.00 76 1008.1
20260506082413 58 189 3.0 6.0 0.00 0.00 0.00 75 1008.1
20260506081413 59 150 3.0 6.0 0.02 0.00 0.00 74 1008.1
20260506080412 59 175 0.0 8.0 0.00 0.00 0.00 70 1008.4
20260506073402 62 185 5.0 10.0 0.00 0.00 0.00 59 1007.6
20260506072402 62 204 4.0 5.0 0.00 0.00 0.00 59 1007.3
20260506071358 62 215 7.0 8.0 0.00 0.00 0.00 60 1007.6
20260506070357 60 171 3.0 7.0 0.00 0.00 0.00 68 1007.9
20260506062340 55 109 0.0 2.0 0.00 0.00 0.00 96 1007.9
20260506061339 55 113 0.0 3.0 0.00 0.00 0.00 96 1008.6
20260506060335 55 105 0.0 3.0 0.00 0.00 0.00 96 1008.6
20260506051324 56 66 3.0 4.0 0.00 0.00 0.00 94 1009.2
20260506050319 56 337 3.0 3.0 0.00 0.00 0.00 93 1009.4
20260506044313 57 36 3.0 4.0 0.00 0.00 0.00 90 1009.5
20260506043313 57 21 2.0 3.0 0.00 0.00 0.00 87 1009.3
20260506042310 58 54 3.0 5.0 0.00 0.00 0.00 85 1009.1
20260506041310 58 44 7.0 8.0 0.00 0.00 0.00 81 1009.1
20260506040305 59 39 8.0 9.0 0.00 0.00 0.00 77 1009.3
20260506035306 62 183 0.0 2.0 0.00 0.00 0.00 70 1009.5
20260506034259 63 137 1.0 3.0 0.00 0.00 0.00 69 1009.4
20260506033258 63 149 4.0 6.0 0.00 0.00 0.00 68 1009.3
20260506032258 63 168 2.0 4.0 0.00 0.00 0.00 68 1009.5
20260506031258 62 174 2.0 3.0 0.00 0.00 0.00 69 1009.4
20260506030254 62 150 2.0 4.0 0.00 0.00 0.00 68 1009.3
20260506025253 63 200 3.0 6.0 0.00 0.00 0.00 67 1009.5
20260506024252 63 144 3.0 5.0 0.00 0.00 0.00 68 1009.3
20260506023251 63 201 3.0 4.0 0.00 0.00 0.00 67 1009.5
20260506022246 64 170 2.0 5.0 0.00 0.00 0.00 66 1009.6
20260506021246 64 166 2.0 7.0 0.00 0.00 0.00 65 1009.5
20260506020246 64 193 3.0 4.0 0.00 0.00 0.00 64 1009.4
20260506015241 64 186 2.0 3.0 0.00 0.00 0.00 65 1009.4
20260506014240 65 151 2.0 8.0 0.00 0.00 0.00 62 1009.2
20260506013240 65 151 3.0 5.0 0.00 0.00 0.00 62 1009.2
20260506012239 66 172 2.0 8.0 0.00 0.00 0.00 61 1009.4
20260506011238 66 195 5.0 5.0 0.00 0.00 0.00 60 1009.2
20260506010233 67 211 1.0 8.0 0.00 0.00 0.00 59 1009.1
20260506005233 67 176 3.0 7.0 0.00 0.00 0.00 58 1009.0
20260506004232 67 175 3.0 6.0 0.00 0.00 0.00 58 1009.0
20260506003231 67 184 1.0 4.0 0.00 0.00 0.00 59 1009.0
20260506002229 66 199 6.0 9.0 0.00 0.00 0.00 58 1008.5
20260506001229 67 150 2.0 4.0 0.00 0.00 0.00 58 1008.6
20260506000223 67 193 3.0 4.0 0.00 0.00 0.00 57 1008.4
20260505235224 68 178 2.0 6.0 0.00 0.00 0.00 57 1008.7
20260505234223 68 211 6.0 13.0 0.00 0.00 0.00 56 1008.8
20260505233218 68 210 4.0 5.0 0.00 0.00 0.00 56 1008.6
20260505232218 69 225 4.0 7.0 0.00 0.00 0.00 55 1008.5